This is the latest recevied weather packets stored in our database for station/object KC9GSD. If no packets are shown the sender has not sent any weather packets the latest 10 day(s).
| Time | Temp. | Humidity | Pressure | Rain* | Wind** | Luminosity | Snow |
|---|---|---|---|---|---|---|---|
| 1777443178 | 16.67° C | 98% | 1016.9 hPa | 10.16 mm | - | 0 W/m² | - |
| 1777442874 | 16.67° C | 98% | 1016.8 hPa | 12.7 mm | - | 0 W/m² | - |
| 1777442570 | 16.67° C | 98% | 1016.6 hPa | 12.7 mm | - | 0 W/m² | - |
| 1777442266 | 16.67° C | 98% | 1016.7 hPa | 11.94 mm | - | 0 W/m² | - |
| 1777441962 | 16.67° C | 98% | 1016.7 hPa | 13.72 mm | - | 0 W/m² | - |
| 1777441658 | 16.67° C | 98% | 1016.5 hPa | 13.72 mm | - | 0 W/m² | - |
| 1777441353 | 17.22° C | 98% | 1016.5 hPa | 11.94 mm | - | 0 W/m² | - |
| 1777441049 | 17.22° C | 98% | 1016.4 hPa | 7.87 mm | - | 0 W/m² | - |
| 1777440745 | 17.22° C | 98% | 1016.3 hPa | 7.87 mm | - | 0 W/m² | - |
| 1777440440 | 17.22° C | 98% | 1016 hPa | 7.87 mm | - | 0 W/m² | - |
| 1777440137 | 17.22° C | 97% | 1016.4 hPa | 7.11 mm | - | 0 W/m² | - |
| 1777439832 | 17.22° C | 97% | 1016.5 hPa | 7.11 mm | - | 0 W/m² | - |
| 1777439529 | 17.22° C | 97% | 1016.5 hPa | 7.11 mm | - | 0 W/m² | - |
| 1777439224 | 16.67° C | 97% | 1016.2 hPa | 4.83 mm | - | 0 W/m² | - |
| 1777438921 | 16.67° C | 97% | 1016 hPa | 4.83 mm | - | 0 W/m² | - |
| 1777438618 | 16.67° C | 97% | 1015.9 hPa | 4.83 mm | - | 0 W/m² | - |
| 1777438314 | 16.67° C | 97% | 1015.7 hPa | 1.78 mm | - | 0 W/m² | - |
| 1777438009 | 16.67° C | 97% | 1015.4 hPa | 1.27 mm | - | 0 W/m² | - |
| 1777437706 | 16.67° C | 97% | 1015.1 hPa | 3.05 mm | - | 0 W/m² | - |
| 1777437403 | 16.67° C | 97% | 1015.2 hPa | 1.78 mm | - | 0 W/m² | - |
| 1777437099 | 16.67° C | 97% | 1015.2 hPa | 1.27 mm | - | 0 W/m² | - |
| 1777436796 | 16.67° C | 97% | 1015.4 hPa | 1.27 mm | - | 0 W/m² | - |
| 1777436189 | 17.22° C | 97% | 1015.4 hPa | 3.05 mm | - | 0 W/m² | - |
| 1777434673 | 17.22° C | 97% | 1016.1 hPa | 0 mm | - | 0 W/m² | - |
| 1777433768 | 16.67° C | 97% | 1016.2 hPa | 0 mm | - | 0 W/m² | - |
* Rain latest hour (hover to see other rain measurements)
** Current wind speed in m/s (hover to see current wind gust speed)